Manistique, MI

2:52 AM EDT on October 17, 2017 (GMT -0400)
Schoolcraft County

Weather History for KISQ - November, 2012

Change the Weather History Date:

Sunday, November 4, 2012

  Actual Average Record
Temperature  
Mean Temperature 36 °F -  
Max Temperature 42 °F 46 °F 64 °F (1975)
Min Temperature 30 °F 30 °F 3 °F (1951)
Degree Days  
Heating Degree Days 29    
Moisture  
Dew Point 27 °F    
Average Humidity 71    
Maximum Humidity 81    
Minimum Humidity 53    
Precipitation  
Precipitation 0.00 in - - ()
Sea Level Pressure  
Sea Level Pressure 30.22 in    
Wind  
Wind Speed 5 mph (North)    
Max Wind Speed 13 mph    
Max Gust Speed 20 mph    
Visibility 10 miles    
Events Snow    
Averages and records for this station are not official NWS values.
T = Trace of Precipitation, MM = Missing Value Source: NWS Daily Summary

Daily Weather History Graph

Daily Weather History Graph

Search for Another Location

Airport or City:

Trip Planner

Search our weather history database for the weather conditions in past years. The results will help you decide how hot, cold, wet, or windy it might be!

Date:

Astronomy

Nov. 04, 2012 Rise Set
Actual Time 7:30 AM EST 5:25 PM EST
Civil Twilight 6:58 AM EST 5:57 PM EST
Nautical Twilight 6:23 AM EST 6:32 PM EST
Astronomical Twilight 5:48 AM EST 7:07 PM EST
Moon 10:00 PM EST (11/4) 12:16 PM EST (11/4)
Length of Visible Light 10h 58m
Length of Day
9h 55m
Waning Gibbous, 72% of the Moon is Illuminated
Nov 4
Waning Gibbous
Nov 6
Last Quarter
Nov 13
New
Nov 20
First Quarter
Nov 28
Full

Hourly Weather History & Observations

Time (EST) Temp. Windchill Dew Point Humidity Pressure Visibility Wind Dir Wind Speed Gust Speed Precip Events Conditions
12:15 AM 33.8 °F 29.6 °F 26.6 °F 75% 30.23 in 10.0 mi North 4.6 mph - N/A   Overcast
12:35 AM 33.8 °F 28.6 °F 26.6 °F 75% 30.23 in 10.0 mi North 5.8 mph - N/A   Overcast
12:54 AM 33.8 °F 29.6 °F 26.6 °F 75% 30.23 in 10.0 mi NNE 4.6 mph - N/A   Overcast
1:15 AM 33.8 °F 30.8 °F 26.6 °F 75% 30.23 in 10.0 mi North 3.5 mph - N/A   Overcast
1:34 AM 33.8 °F 30.8 °F 26.6 °F 75% 30.23 in 10.0 mi North 3.5 mph - N/A   Overcast
1:55 AM 33.8 °F 28.6 °F 26.6 °F 75% 30.23 in 10.0 mi North 5.8 mph - N/A   Overcast
1:14 AM 33.8 °F 28.6 °F 24.8 °F 70% 30.22 in 10.0 mi North 5.8 mph - N/A   Overcast
1:35 AM 33.8 °F 30.8 °F 26.6 °F 75% 30.22 in 10.0 mi North 3.5 mph - N/A   Overcast
1:55 AM 33.8 °F - 26.6 °F 75% 30.23 in 10.0 mi Calm Calm - N/A   Overcast
2:14 AM 33.8 °F - 26.6 °F 75% 30.23 in 10.0 mi Calm Calm - N/A   Overcast
2:35 AM 33.8 °F - 26.6 °F 75% 30.23 in 10.0 mi Calm Calm - N/A   Overcast
2:54 AM 33.8 °F 30.8 °F 26.6 °F 75% 30.23 in 10.0 mi NNW 3.5 mph - N/A   Overcast
3:14 AM 33.8 °F - 26.6 °F 75% 30.23 in 10.0 mi Calm Calm - N/A   Overcast
3:35 AM 33.8 °F - 26.6 °F 75% 30.22 in 10.0 mi Calm Calm - N/A   Overcast
3:54 AM 33.8 °F - 26.6 °F 75% 30.22 in 10.0 mi Calm Calm - N/A   Overcast
4:15 AM 33.8 °F - 26.6 °F 75% 30.22 in 10.0 mi Calm Calm - N/A   Overcast
4:34 AM 33.8 °F - 26.6 °F 75% 30.22 in 10.0 mi Calm Calm - N/A   Overcast
4:54 AM 32.0 °F - 26.6 °F 80% 30.22 in 10.0 mi Calm Calm - N/A   Overcast
5:15 AM 33.8 °F - 28.4 °F 81% 30.23 in 10.0 mi Calm Calm - N/A   Overcast
5:34 AM 33.8 °F 30.8 °F 28.4 °F 81% 30.22 in 10.0 mi NW 3.5 mph - N/A   Overcast
5:55 AM 33.8 °F 30.8 °F 28.4 °F 81% 30.22 in 10.0 mi NW 3.5 mph - N/A   Overcast
6:14 AM 33.8 °F - 28.4 °F 81% 30.22 in 10.0 mi Calm Calm - N/A   Overcast
6:34 AM 33.8 °F 29.6 °F 28.4 °F 81% 30.22 in 10.0 mi WNW 4.6 mph - N/A   Overcast
6:55 AM 33.8 °F 30.8 °F 28.4 °F 81% 30.22 in 10.0 mi WNW 3.5 mph - N/A   Overcast
7:14 AM 33.8 °F 29.6 °F 28.4 °F 81% 30.22 in 10.0 mi West 4.6 mph - N/A   Overcast
7:35 AM 33.8 °F 28.6 °F 28.4 °F 81% 30.23 in 10.0 mi West 5.8 mph - N/A   Overcast
7:54 AM 33.8 °F - 28.4 °F 81% 30.23 in 10.0 mi Calm Calm - N/A   Overcast
8:14 AM 33.8 °F 30.8 °F 28.4 °F 81% 30.24 in 10.0 mi WNW 3.5 mph - N/A   Overcast
8:35 AM 35.6 °F 32.8 °F 28.4 °F 75% 30.24 in 10.0 mi NNW 3.5 mph - N/A   Overcast
8:54 AM 35.6 °F 32.8 °F 28.4 °F 75% 30.24 in 10.0 mi NW 3.5 mph - N/A   Overcast
9:15 AM 35.6 °F 30.7 °F 30.2 °F 81% 30.24 in 10.0 mi North 5.8 mph - N/A Snow Light Snow
9:34 AM 37.4 °F 34.9 °F 30.2 °F 75% 30.24 in 10.0 mi North 3.5 mph - N/A   Overcast
9:55 AM 37.4 °F 33.8 °F 30.2 °F 75% 30.23 in 10.0 mi NNW 4.6 mph - N/A   Overcast
10:15 AM 37.4 °F 32.1 °F 30.2 °F 75% 30.24 in 10.0 mi North 6.9 mph - N/A   Overcast
10:34 AM 37.4 °F 31.4 °F 28.4 °F 70% 30.23 in 10.0 mi North 8.1 mph - N/A   Overcast
10:55 AM 37.4 °F 30.8 °F 28.4 °F 70% 30.23 in 10.0 mi North 9.2 mph - N/A   Overcast
11:14 AM 37.4 °F 30.8 °F 28.4 °F 70% 30.23 in 10.0 mi North 9.2 mph - N/A   Overcast
11:34 AM 39.2 °F 33.6 °F 28.4 °F 65% 30.22 in 10.0 mi North 8.1 mph - N/A   Mostly Cloudy
11:54 AM 39.2 °F 33.6 °F 26.6 °F 61% 30.22 in 10.0 mi North 8.1 mph - N/A   Scattered Clouds
12:14 PM 39.2 °F 32.0 °F 26.6 °F 61% 30.22 in 10.0 mi North 11.5 mph - N/A   Scattered Clouds
12:34 PM 41.0 °F 34.3 °F 26.6 °F 57% 30.21 in 10.0 mi North 11.5 mph 17.3 mph N/A   Scattered Clouds
12:54 PM 41.0 °F 34.7 °F 26.6 °F 57% 30.21 in 10.0 mi North 10.4 mph - N/A   Scattered Clouds
1:15 PM 41.0 °F 33.9 °F 26.6 °F 57% 30.21 in 10.0 mi North 12.7 mph 18.4 mph N/A   Clear
1:34 PM 41.0 °F 35.8 °F 26.6 °F 57% 30.21 in 10.0 mi NNW 8.1 mph - N/A   Clear
1:55 PM 42.8 °F 36.6 °F 26.6 °F 53% 30.21 in 10.0 mi NNW 11.5 mph 16.1 mph N/A   Scattered Clouds
2:15 PM 42.8 °F 37.0 °F 26.6 °F 53% 30.20 in 10.0 mi NNW 10.4 mph 17.3 mph N/A   Mostly Cloudy
2:34 PM 41.0 °F 34.3 °F 26.6 °F 57% 30.19 in 10.0 mi North 11.5 mph 16.1 mph N/A   Scattered Clouds
2:54 PM 41.0 °F 35.8 °F 26.6 °F 57% 30.19 in 10.0 mi NNW 8.1 mph - N/A   Scattered Clouds
3:14 PM 41.0 °F 33.9 °F 26.6 °F 57% 30.20 in 10.0 mi North 12.7 mph 19.6 mph N/A   Scattered Clouds
3:35 PM 39.2 °F 33.0 °F 26.6 °F 61% 30.20 in 10.0 mi NNW 9.2 mph - N/A   Scattered Clouds
3:54 PM 39.2 °F 32.5 °F 26.6 °F 61% 30.21 in 10.0 mi NNW 10.4 mph - N/A   Clear
4:15 PM 37.4 °F 29.8 °F 24.8 °F 60% 30.21 in 10.0 mi North 11.5 mph - N/A   Scattered Clouds
4:34 PM 37.4 °F 30.8 °F 24.8 °F 60% 30.21 in 10.0 mi NNW 9.2 mph - N/A   Scattered Clouds
4:55 PM 35.6 °F 28.6 °F 24.8 °F 65% 30.21 in 10.0 mi North 9.2 mph - N/A   Clear
5:14 PM 33.8 °F 27.0 °F 24.8 °F 70% 30.22 in 10.0 mi North 8.1 mph - N/A   Scattered Clouds
5:35 PM 33.8 °F 27.7 °F 24.8 °F 70% 30.22 in 10.0 mi North 6.9 mph - N/A   Mostly Cloudy
5:54 PM 33.8 °F 25.8 °F 24.8 °F 70% 30.22 in 10.0 mi North 10.4 mph - N/A   Overcast
6:14 PM 33.8 °F 25.8 °F 24.8 °F 70% 30.23 in 10.0 mi North 10.4 mph - N/A   Overcast
6:35 PM 33.8 °F 26.4 °F 24.8 °F 70% 30.23 in 10.0 mi NNW 9.2 mph - N/A   Overcast
6:54 PM 33.8 °F 27.0 °F 24.8 °F 70% 30.23 in 10.0 mi NNW 8.1 mph - N/A   Overcast
7:15 PM 33.8 °F 26.4 °F 24.8 °F 70% 30.23 in 10.0 mi North 9.2 mph - N/A   Overcast
7:35 PM 33.8 °F 25.3 °F 24.8 °F 70% 30.23 in 10.0 mi North 11.5 mph - N/A   Overcast
7:54 PM 33.8 °F 27.7 °F 24.8 °F 70% 30.24 in 10.0 mi North 6.9 mph - N/A   Overcast
8:15 PM 32.0 °F 25.6 °F 24.8 °F 75% 30.24 in 10.0 mi North 6.9 mph - N/A   Overcast
8:34 PM 32.0 °F 25.6 °F 24.8 °F 75% 30.24 in 10.0 mi North 6.9 mph - N/A   Overcast
8:55 PM 32.0 °F 23.6 °F 24.8 °F 75% 30.23 in 10.0 mi NNE 10.4 mph - N/A   Overcast
9:15 PM 32.0 °F 24.8 °F 24.8 °F 75% 30.24 in 10.0 mi NNE 8.1 mph - N/A   Overcast
9:34 PM 32.0 °F 23.0 °F 24.8 °F 75% 30.24 in 10.0 mi North 11.5 mph 17.3 mph N/A   Overcast
9:55 PM 32.0 °F 24.2 °F 24.8 °F 75% 30.24 in 10.0 mi NNE 9.2 mph - N/A   Overcast
10:14 PM 32.0 °F 24.2 °F 23.0 °F 69% 30.24 in 10.0 mi NNE 9.2 mph - N/A   Overcast
10:35 PM 30.2 °F 23.4 °F 23.0 °F 75% 30.24 in 10.0 mi North 6.9 mph - N/A   Overcast
10:54 PM 30.2 °F 25.4 °F 24.8 °F 80% 30.24 in 10.0 mi North 4.6 mph - N/A   Overcast